Regional Weather Roundup
Issued by NWS Grand Forks, ND

Home | Current Version | Previous Version | Text Only | Print | Product List | Glossary Off
Versions: 1 2 3 4 5 6 7 8 9 10 11 12 13 14 15 16 17 18 19 20 21 22 23 24 25 26 27 28 29 30 31 32 33 34 35 36 37 38 39 40 41 42 43 44 45 46 47 48 49 50

000
ASUS43 KFGF 290910
RWRFGF
PRAIRIE TO PINES  WEATHER ROUNDUP
NATIONAL WEATHER SERVICE EASTERN NORTH DAKOTA/GRAND FORKS ND
400 AM CDT WED MAR 29 2017

 **SATELLITE DATA USED TO AUGMENT SKY COVER AT AUTOMATED STATIONS**
 *****  WEATHER ACROSS EASTERN NORTH DAKOTA  *****

CITY           SKY/WX    TMP DP  RH WIND       PRES   REMARKS
GRAND FORKS    FAIR      33  32  96 CALM      30.18S
GRAND FRKS AFB FAIR      30  30 100 CALM      30.18S
DEVILS LAKE    FOG       34  34 100 SE7       30.16S VSB 3/4
FARGO          FAIR      37  32  82 CALM      30.18R
WAHPETON ARPT  FAIR      36  34  93 CALM      30.17F
$$

 ***** WEATHER ACROSS CENTRAL AND WESTERN NORTH DAKOTA  *****

CITY           SKY/WX    TMP DP  RH WIND       PRES   REMARKS
BISMARCK       MOCLDY    41  37  86 SE5       30.15R
MINOT          CLOUDY    43  39  86 SW5       30.07F
JAMESTOWN      FAIR      36  36 100 CALM      30.16S FOG
MINOT AFB      CLOUDY    37  37  99 S8        30.06S
GARRISON         N/A     38  36  92 S5        30.09S
WILLISTON      FOG       33  33 100 CALM      30.07F VSB<1/4
DICKINSON      MOCLDY    36  35  96 S8        30.08R
HETTINGER      MOCLDY    38  37  97 SE5       30.12S FOG
$$

 *****  OTHER AIRPORT OBSERVATIONS IN OUR AREA  *****

CITY           SKY/WX    TMP DP  RH WIND       PRES   REMARKS
WALHALLA       NOT AVBL
GRAFTON AIRPOR FAIR      32  32 100 CALM      30.20S
VALLEY CITY AR FAIR      37  37 100 CALM      30.18S
CANDO          NOT AVBL
CAVALIER APRT  FAIR      30  30 100 CALM      30.17F FOG
GWINNER        SUNNY     41  39  93 MISG      30.17F
SHEYENNE NWR     N/A     34  34 100 CALM      29.95S
ROLLA          CLOUDY    36  36 100 S9        30.12F FOG
 ***** THE ABOVE OBSERVATIONS ARE NON NWS ARE NOT QUALITY
       CONTROLLED AND MAY MIS-REPORT RAIN FOR SNOW...
$$

  *****  WEATHER ACROSS NORTHERN MINNESOTA  *****

CITY           SKY/WX    TMP DP  RH WIND       PRES   REMARKS
FLAG ISLAND    FAIR      36  21  55 SE5       30.24S
WARROAD        MOCLDY    32  28  86 E5        30.23F
ROSEAU         FAIR      37  28  70 E7        30.21F
HALLOCK        FAIR      39  30  70 SE8       30.17F
THF RVR FALLS  FAIR      37  28  70 E10       30.20F
BAUDETTE       FAIR      31  23  72 E8        30.23F WCI  23
WASKISH        FAIR      34  27  75 E7        30.23S
CROOKSTON      FAIR      37  30  75 E7        30.19S
GREENBUSH NDAW   N/A     36  30  80 SE3         N/A
$$
  *****  WEATHER ACROSS CENTRAL AND WEST MINNESOTA  *****

CITY           SKY/WX    TMP DP  RH WIND       PRES   REMARKS
FOSSTON        FAIR      36  30  80 E6        30.20S
BEMIDJI        FAIR      29  24  80 E3        30.21S
PARK RAPIDS    FAIR      35  25  66 NE3       30.19R
ELBOW LAKE     FAIR      40  37  88 CALM      30.17F
WADENA         FAIR      36  27  69 CALM      30.18F
DETROIT LAKES  FAIR      41  30  65 NE3       30.19S
MOORHEAD       FAIR      36  32  87 CALM      30.19R
FERGUS FALLS   FAIR      41  30  65 E6        30.20S
MORRIS MN      FAIR      37  34  87 E6        30.16S
STAPLES        FAIR      37  27  65 E5        30.19F
$$
  *****  WEATHER ELSEWHERE ACROSS MINNESOTA  *****

CITY           SKY/WX    TMP DP  RH WIND       PRES   REMARKS
DULUTH         FAIR      34  23  64 E13       30.27R WCI  25
INTRNTL FALLS  FAIR      32  23  69 E8        30.25F WCI  25
ELY            FAIR      27  25  93 CALM      30.28S
CLOQUET        FAIR      34  25  69 E9        30.26R
WHEATON        FAIR      37  37 100 CALM      30.19S FOG
BRAINERD       FAIR      36  28  73 E7        30.21S
HIBBING        FAIR      26  24  92 CALM      30.27R
ALEXANDRIA     FAIR      37  31  78 E5        30.18S
SAINT CLOUD    FAIR      33  29  85 E3        30.20R
MINNEAPOLIS    CLOUDY    43  33  68 CALM      30.19F
$$

  *****  WEATHER ACROSS SOUTH DAKOTA  *****

CITY           SKY/WX    TMP DP  RH WIND       PRES   REMARKS
SIOUX FALLS    MOCLDY    40  37  89 CALM      30.15R
BROOKINGS      FAIR      37  34  89 CALM      30.15R
WATERTOWN      FAIR      38  35  89 N5        30.16S
HURON          FAIR      43  39  86 S3        30.15R
SISSETON         N/A     37  34  89 NW3       30.16F
ABERDEEN       FAIR      38  32  79 NE3       30.16F
MITCHELL       FAIR      39  37  92 N5        30.15S
PIERRE         CLOUDY    43  41  93 NW8       30.13F
MOBRIDGE       CLOUDY    44  39  82 CALM      30.13S
RAPID CITY     CLOUDY    41  40  96 SE3       30.10F
$$

  *****  SOME WEATHER IN NEARBY STATES *****

CITY           SKY/WX    TMP DP  RH WIND       PRES   REMARKS
GLASGOW MT     FAIR      41  32  70 S5        30.01F
GREAT FALLS MT FAIR      40  25  55 SW13      30.05S
CHEYENNE WY    CLOUDY    35  33  92 N9        30.09R
SCOTTSBLUFF NE CLOUDY    40  37  89 CALM      30.12S FOG
OMAHA NE       RAIN      47  42  83 E9        30.07R
DES MOINES IA  CLOUDY    46  42  86 NE9       30.10R
DAVENPORT IA   CLOUDY    40  38  93 E14       30.16F
CHICAGO IL     FOG       35  34  96 NE9       30.22R VSB 3/4
EAU CLAIRE WI  FAIR      36  30  79 NE6       30.22R
LA CROSSE WI   FAIR      43  34  70 SE5       30.21S
$$

  *****  SOME NATIONAL WEATHER *****

CITY           SKY/WX    TMP DP  RH WIND       PRES   REMARKS
LA GUARDIA NY  CLOUDY    48  40  73 N15       29.99R
RALEIGH NC     FAIR      59  50  72 N3        29.98R
ATLANTA GA     FAIR      60  55  83 NW5       29.99F
NEW ORLEANS LA FAIR      70  68  93 SE9       29.86F
OKLAHOMA CITY  LGT RAIN  52  51  97 N12       29.70F
ALBUQUERQUE NM CLOUDY    42  39  89 N6        29.87R
SALT LAKE CITY FAIR      39  32  76 CALM      30.23S
LOS ANGELES CA FAIR      59  50  72 E5        30.01R
BOISE ID       FAIR      40  32  73 SE7       30.23F
SEATTLE WA     LGT RAIN  46  44  93 SE7       30.08F
$$

*** WEATHER ACROSS MANITOBA...SASKATCHEWAN AND ONTARIO ***
                ***ONTARIO***

CITY           SKY/WX    TMP DP  RH WIND       PRES   REMARKS
GERALDTON      PTCLDY    16  14  93 NE5       30.39R WCI   9
THUNDER BAY    CLEAR     23  21  93 W2        30.38S
SIOUX LOOKOUT  CLEAR     27  18  69 SE5       30.32F WCI  21
TORONTO        CLEAR     34  28  80 N7        30.19S
BIG TROUT LK   PTCLDY     7   5  92 E3        30.43F
PICKLE LAKE    NOT AVBL
DRYDEN         MOCLDY    28  21  74 E6        30.29F WCI  22
KENORA         CLOUDY    34  19  55 E9        30.25F
$$
                *** MANITOBA***

CITY           SKY/WX    TMP DP  RH WIND       PRES   REMARKS
BRANDON        FRZ RAIN  32  30  93 E13       30.12F WCI  22
DAUPHIN        CLOUDY    32  30  93 SE9       30.14F WCI  24
ISLAND LAKE    PTCLDY    21  14  73 SE7       30.31F WCI  13
PILOT MOUND    NOT AVBL
THE PAS        CLOUDY    30  21  69 SE9       30.13F WCI  22
THOMPSON       NOT AVBL
WINNIPEG       MOCLDY    37  27  65 CALM      30.19S
LYNN LAKE      CLOUDY    21  16  79 SE6       30.14F WCI  14
CHURCHILL      CLEAR      1   0  92 S9        30.40F WCI -14
GILLAM         CLEAR     12   7  79 SE7       30.36S WCI   2
$$
                ***SASKATCHEWAN***

CITY           SKY/WX    TMP DP  RH WIND       PRES   REMARKS
ESTEVAN        FOG       30  30 100 SE5       30.06F VSB 1/4
KINDERSLEY     PTCLDY    34  27  75 S8        29.84F
LLOYDMINSTER   FOG       34  34 100 E7        29.85S VSB 3/8
PRINCE ALBERT  CLOUDY    34  34 100 E9        29.96F
REGINA         MOCLDY    34  34 100 SE14      29.98F FOG     WCI  24
YORKTON        CLOUDY    32  32 100 SE12      30.05F FOG     WCI  23
N. BATTLEFORD  PTCLDY    34 N/A N/A E9        29.87S
LA RONGE       CLOUDY    34  27  75 E7        30.01F
SASKATOON      CLOUDY    37  34  87 E7        29.90F
SWIFT CURRENT  MOCLDY    37  28  70 SW14      29.91F
$$
NOTE: THESE ARE AUTOMATED STATIONS WITH LIMITED QUALITY CONTROL
      "FAIR" INDICATES FEW OR NO CLOUDS BELOW 12,000 FEET WITH NO
      SIGNIFICANT WEATHER AND/OR OBSTRUCTIONS TO VISIBILITY.
      SKY/WX - SKY CONDITION AND SIGNIFICANT WEATHER.
      TMP - AIR TEMPERATURE.    DP   - DEWPOINT TEMPERATURE.
      RH  - RELATIVE HUMIDITY.  PRES - PRESSURE.
      HX  - HEAT INDEX.         WCI  - WIND CHILL INDEX.
$



USA.gov is the U.S. government's official web portal to all federal, state and local government web resources and services.